Theta_e
350 352 351 350 352 354 353 355 357 358 359 358 360 360 360 359 361 362 361 360 360 359 360 361 360 362 357 357 357 357 355 353 345 347 354 357 362 359 360 363 360 359 358
351 352 352 353 352 351 353 355 357 357 360 360 361 359 360 360 361 360 359 357 358 357 358 358 358 356 360 362 358 359 355 358 351 350 354 355 357 358 362 362 357 357 360
352 351 352 352 353 353 354 357 358 357 358 359 361 360 361 360 360 360 360 359 359 358 358 357 356 358 358 357 358 356 358 355 356 352 350 355 354 358 356 361 358 362 354
352 352 352 352 354 354 355 356 358 360 359 359 361 361 361 361 360 359 359 359 360 358 359 358 359 359 358 358 356 359 357 355 356 353 350 350 352 358 357 353 349 354 346
352 352 353 355 355 356 356 357 358 358 360 358 359 360 360 359 356 359 361 359 360 358 358 359 359 356 345 349 362 364 361 361 360 355 348 349 349 349 351 353 350 350 349
350 352 355 356 356 356 357 356 358 358 359 359 354 357 357 358 332 334 343 357 357 358 358 358 359 349 347 339 339 338 346 358 357 355 356 354 354 352 354 350 349 345 343
348 351 353 355 354 356 357 356 355 356 357 357 356 356 352 352 327 327 331 351 353 355 355 355 356 357 348 352 337 334 333 332 337 356 353 352 352 355 351 349 351 347 342
351 350 351 350 351 351 353 354 354 353 352 352 349 347 346 333 318 319 325 345 346 348 352 352 352 354 345 342 347 346 341 340 342 347 350 347 345 346 347 352 353 348 338
344 344 343 344 341 341 341 345 343 344 343 342 345 341 340 334 316 316 324 345 346 345 335 332 334 335 324 327 344 334 337 331 321 320 321 320 321 323 332 347 339 337 338
337 339 341 341 340 339 339 340 342 341 335 327 321 320 315 325 317 315 323 343 340 333 326 327 318 325 319 322 347 338 335 334 330 330 329 328 328 326 322 332 334 334 332
341 342 341 341 339 339 340 338 336 331 326 321 318 316 317 314 323 313 320 337 332 326 325 326 324 314 312 312 320 339 336 334 326 328 326 324 324 325 323 323 323 324 326
338 339 340 340 340 336 332 328 328 325 321 318 316 314 316 316 310 312 314 319 322 321 319 316 311 308 307 310 315 312 314 320 323 322 321 318 318 317 319 318 318 317 315
331 326 326 327 327 333 329 324 322 321 319 316 317 315 315 314 314 309 310 313 316 324 320 313 310 307 308 311 310 312 315 317 314 312 308 307 308 310 315 317 316 314 314
321 319 315 315 313 314 316 323 323 322 320 322 320 317 314 314 310 310 312 317 316 318 316 315 310 310 309 310 311 312 312 313 312 311 308 310 310 308 308 309 308 314 310
317 316 314 313 310 307 304 306 306 302 305 318 318 314 308 304 299 298 298 304 311 314 313 313 312 310 308 309 308 309 309 309 308 308 306 305 305 305 306 307 307 307 305
314 314 312 313 313 312 309 305 302 300 298 296 297 302 299 299 296 295 294 295 298 302 316 312 308 308 308 308 310 311 311 309 309 309 307 305 305 304 304 305 306 304 303
321 316 313 314 315 314 315 315 311 301 297 296 296 296 298 300 295 294 294 296 297 302 314 312 313 310 306 306 308 307 308 307 309 306 306 305 304 303 304 303 303 303 303
321 311 318 316 315 314 312 310 309 310 308 306 297 298 296 295 294 294 295 299 307 307 310 308 307 306 304 305 304 307 303 306 304 304 303 304 304 305 304 303 304 303 305
315 312 312 315 318 314 314 312 308 307 306 302 301 298 297 293 293 293 294 310 311 310 309 311 309 306 304 303 303 303 302 302 302 302 303 303 303 303 303 303 300 297 299
311 307 310 311 315 317 317 315 309 310 308 307 305 306 306 305 309 309 308 309 311 312 310 309 308 307 306 306 304 301 299 298 299 298 299 299 298 299 300 300 300 301 302
312 311 306 310 311 311 312 314 314 313 312 310 308 306 299 310 312 311 310 311 311 311 309 309 308 307 306 305 303 302 301 299 298 297 297 296 296 297 298 298 298 298 300
316 315 314 314 312 311 311 311 310 309 310 310 310 306 295 308 311 311 311 311 311 311 310 309 307 306 306 305 303 302 300 298 298 299 297 296 297 297 298 297 297 298 300
318 317 315 313 312 308 308 309 308 309 309 310 310 308 306 309 310 310 310 311 310 309 309 308 307 306 306 305 305 304 301 300 300 300 299 298 297 297 297 298 299 299 301
318 319 316 314 312 310 310 309 309 303 307 309 311 310 309 309 310 310 310 310 310 309 308 307 306 305 304 304 303 303 302 301 301 301 301 301 299 296 299 299 300 299 301
321 320 318 316 314 313 312 310 310 310 308 308 308 309 310 310 310 310 310 310 309 308 307 306 306 305 304 304 303 301 293 290 299 294 301 300 299 298 300 301 302 302 301
318 318 317 317 316 315 315 314 313 309 308 304 306 308 309 309 309 310 309 308 307 306 306 306 305 305 304 304 302 293 285 287 294 288 302 302 301 301 301 301 300 303 301
Wind_Speed
14 13 11 11 10 9 8 8 8 7 8 9 9 9 9 9 9 8 7 6 7 6 5 5 6 4 4 4 4 4 4 4 6 4 4 3 4 5 6 6 5 4 4
14 13 13 11 10 10 10 9 8 8 8 9 8 7 8 9 10 10 9 7 9 8 7 6 7 5 6 5 5 6 5 3 5 7 5 3 4 4 5 5 5 5 5
13 13 12 12 12 12 11 9 8 8 9 9 8 9 8 9 10 10 9 9 9 9 8 7 8 7 8 6 6 5 5 4 5 6 6 3 3 3 4 2 4 4 4
14 14 14 14 14 12 11 10 9 8 8 9 9 7 7 7 8 9 9 9 9 8 8 8 8 8 8 7 7 8 6 6 5 6 5 5 4 2 3 4 3 4 6
13 13 14 12 13 11 10 9 9 8 8 8 8 8 7 7 6 9 10 9 9 9 9 9 9 8 7 7 5 7 6 5 5 5 7 5 4 3 3 2 2 2 5
9 13 11 11 11 11 10 9 8 8 7 6 5 6 6 3 4 3 5 6 6 7 7 6 7 6 3 2 3 4 6 6 7 5 4 4 4 3 2 3 2 2 1
8 8 9 10 10 9 8 8 7 6 4 5 4 3 2 2 2 1 2 4 5 6 5 5 5 2 3 2 4 5 7 6 4 4 5 5 4 2 2 3 2 2 3
8 8 9 8 8 7 7 8 7 5 4 3 3 2 2 4 9 8 6 5 4 5 5 5 5 3 1 1 3 4 3 4 3 1 0 1 3 4 4 2 1 3 4
9 6 5 6 7 5 6 5 2 4 3 3 3 4 3 1 6 6 7 5 5 3 3 4 2 1 1 3 3 6 4 7 11 14 12 9 12 13 8 3 2 3 2
4 7 5 3 4 5 6 6 4 2 4 4 5 3 3 1 5 8 5 3 3 3 3 4 8 4 4 2 5 7 7 7 7 7 6 8 10 11 15 10 5 2 2
6 4 4 3 4 6 5 3 4 5 6 5 4 3 3 5 5 8 1 3 4 3 3 2 4 5 6 8 4 4 3 7 7 6 5 6 6 8 8 9 9 7 3
6 7 5 3 3 3 6 5 5 5 6 5 4 3 4 6 11 8 8 8 7 4 4 4 5 7 11 10 8 10 10 6 4 4 4 5 5 6 6 7 9 9 9
9 7 5 6 6 3 6 6 5 5 4 4 3 3 3 3 3 10 11 9 9 7 5 8 9 8 8 10 12 10 7 5 4 5 4 5 3 5 3 4 5 7 8
9 8 7 7 7 7 6 5 4 4 3 2 3 4 4 3 4 4 3 3 6 6 8 6 10 9 11 8 6 7 5 4 4 4 4 4 4 4 5 4 4 1 2
9 7 6 6 6 5 8 5 5 5 4 3 3 4 3 4 2 4 4 3 3 2 6 3 3 3 4 4 5 5 4 2 5 4 4 4 5 4 5 4 4 4 4
7 6 5 5 4 4 5 6 10 7 7 8 5 3 2 7 8 5 6 7 6 2 4 3 2 2 3 3 4 4 4 4 4 4 5 4 4 4 4 4 4 5 4
7 6 5 5 4 4 4 4 5 3 5 6 7 7 4 7 2 4 6 6 6 1 4 4 6 5 4 3 3 3 4 5 3 4 4 4 4 5 2 3 4 3 3
8 6 5 4 4 4 4 4 3 2 3 2 2 2 1 2 2 2 4 1 3 2 1 4 3 4 6 6 5 4 5 2 4 4 4 3 3 2 3 3 3 2 2
5 4 3 3 2 3 4 4 3 3 3 3 3 1 1 1 4 2 3 4 3 4 4 5 4 4 4 4 5 6 5 4 4 2 1 2 2 2 2 2 4 2 1
5 5 3 2 3 3 2 2 3 3 3 3 3 2 4 5 3 4 4 4 3 4 4 5 4 4 4 4 4 5 5 4 3 3 2 2 2 2 2 1 2 1 1
3 3 3 2 2 1 2 3 3 3 3 3 3 3 1 3 2 2 3 3 4 4 5 5 5 5 5 5 5 4 4 4 2 3 3 2 2 2 1 1 1 2 3
1 1 1 2 1 2 2 2 3 3 4 3 3 4 5 5 3 3 3 4 4 4 4 4 4 4 5 5 6 5 5 5 4 4 4 3 3 3 2 3 3 2 2
2 2 2 3 3 2 4 3 4 5 4 4 4 5 6 5 5 5 5 5 5 4 4 4 5 5 4 4 4 4 4 4 4 4 3 4 4 4 4 3 3 3 1
4 5 4 4 4 4 5 5 5 4 5 4 4 5 6 7 7 7 6 5 5 5 5 5 5 7 6 5 4 4 4 5 5 5 5 4 4 4 4 3 3 2 2
4 4 5 5 5 6 5 6 6 6 5 5 5 5 6 7 7 7 8 8 7 6 6 6 5 7 9 8 7 7 8 6 3 3 4 4 5 5 3 2 1 2 1
2 3 4 4 6 6 7 7 6 5 5 4 5 6 6 7 8 8 8 9 8 8 8 7 7 9 10 8 9 10 8 8 7 3 2 4 4 4 3 3 2 1 1
Wind_Direction
199 201 203 208 213 218 218 220 225 226 227 228 222 227 230 219 212 217 226 232 233 236 242 241 259 248 242 226 232 242 249 251 281 302 284 299 282 320 349 348 351 347 56
204 201 205 203 204 216 221 222 224 227 218 221 236 233 236 231 226 219 225 237 234 240 244 244 251 247 253 248 242 249 263 254 286 292 324 298 294 342 340 342 350 24 29
196 202 206 206 201 204 213 221 229 225 228 227 229 225 229 224 219 228 231 236 235 234 242 246 251 242 242 254 250 258 255 253 240 272 298 305 319 334 336 13 25 60 35
195 198 202 207 209 209 203 203 216 229 225 222 227 228 230 226 228 236 230 227 233 240 245 242 250 245 254 256 251 252 250 252 241 254 277 297 295 359 311 350 42 58 33
197 202 207 209 206 206 207 204 209 220 231 228 241 223 224 225 229 231 237 235 234 239 243 241 247 258 285 283 263 252 247 242 252 269 280 280 273 285 337 348 354 42 91
194 211 208 204 209 211 201 200 213 222 231 227 235 250 230 193 81 19 314 257 264 260 253 256 259 215 213 48 329 288 312 272 251 253 257 261 264 280 322 330 347 357 132
202 208 208 207 209 212 209 197 203 211 226 238 243 212 197 150 83 189 218 243 250 253 259 277 279 196 236 241 95 102 78 44 327 301 286 284 287 276 309 266 73 4 61
198 197 197 176 178 175 196 196 183 175 166 164 169 155 165 76 18 336 270 233 230 263 283 283 282 262 146 271 186 99 59 31 327 81 107 329 282 282 252 310 36 114 119
141 129 122 132 137 163 174 180 194 138 138 120 115 130 141 85 12 339 294 240 207 188 89 41 30 137 314 183 183 130 130 97 69 73 85 88 63 42 9 211 145 248 235
126 135 129 221 161 173 220 180 162 185 140 120 110 88 54 12 11 342 281 281 187 121 75 78 43 8 7 335 219 170 165 155 144 135 110 75 56 61 42 33 353 353 359
134 144 123 198 159 171 181 140 143 131 125 109 105 83 81 20 2 342 28 145 141 119 98 73 61 47 62 57 29 165 141 136 122 129 103 80 61 54 49 43 36 17 18
86 105 123 126 107 113 104 73 88 111 101 100 124 109 59 37 18 18 55 77 106 124 98 70 58 63 69 63 70 76 76 77 75 89 80 63 58 52 56 54 56 56 56
90 76 63 51 48 62 104 95 88 77 90 125 117 94 69 55 53 39 39 67 89 102 96 102 91 50 61 63 61 54 70 89 113 114 106 89 76 70 67 89 96 92 82
97 89 61 60 60 36 55 51 91 106 122 104 129 120 113 85 54 32 38 71 78 93 102 61 81 71 57 42 47 39 35 56 80 91 84 87 90 78 61 37 41 15 32
97 96 96 87 84 76 65 41 69 49 1 98 114 113 109 92 75 99 74 13 3 116 118 125 127 109 86 90 71 73 74 76 95 101 90 79 74 65 59 37 38 47 50
85 82 83 85 84 86 90 88 48 63 52 47 22 121 94 125 154 113 91 114 93 102 179 152 97 56 98 108 122 114 102 68 72 95 99 98 87 74 74 67 60 51 42
105 102 99 113 113 110 118 116 118 92 75 61 61 69 59 139 128 72 98 122 128 219 222 169 148 130 101 70 79 54 81 71 66 71 70 76 85 95 80 69 66 51 63
106 101 112 109 120 118 108 101 100 127 121 110 148 338 143 167 129 30 349 128 117 102 204 160 146 142 137 142 123 117 103 135 107 104 104 97 100 109 128 107 89 69 56
98 97 84 92 120 107 117 122 120 130 122 134 152 193 147 258 262 248 271 255 218 206 190 173 160 148 126 117 141 128 144 147 109 93 72 114 138 160 140 164 112 66 250
99 94 80 99 110 141 169 158 161 173 170 168 184 163 162 194 206 200 206 221 222 193 174 153 158 135 133 139 137 128 131 126 126 127 144 121 82 360 37 333 325 264 92
115 111 82 92 90 137 180 206 205 219 215 202 210 186 225 238 210 186 198 192 199 177 170 162 151 144 153 151 149 148 139 130 143 152 134 108 74 60 61 344 288 309 332
100 92 25 326 289 233 255 278 276 269 263 249 213 181 174 238 198 177 177 178 167 164 153 149 161 166 167 164 160 164 168 164 168 162 154 154 158 170 186 190 211 193 216
232 259 268 263 252 224 228 237 243 243 246 236 227 213 193 211 202 191 177 170 164 159 156 167 162 164 164 166 175 175 184 177 160 156 155 166 173 176 178 187 188 191 185
234 242 254 254 248 257 257 258 254 249 270 247 222 222 217 213 208 197 191 174 174 168 167 170 177 173 162 166 164 170 167 157 155 153 173 163 136 170 163 177 167 100 85
239 249 250 253 250 244 243 245 250 253 254 247 236 227 227 222 214 202 194 180 180 177 173 170 178 177 179 179 174 173 109 137 185 93 164 158 147 165 161 174 148 109 107
20 329 306 291 277 273 272 271 259 254 255 256 261 227 228 225 220 203 190 184 177 176 175 177 180 182 176 179 179 131 140 159 163 242 204 168 178 182 183 175 174 260 270